Location: Hradec Kralove
(50.2170°N, 15.8330°E)
Time: 20:43:51
(UTC+02:00)

Envisat - Visible Passes

Search period start: 13 April 2024 00:00
Search period end: 23 April 2024 00:00
Orbit: 762 x 764 km, 98.3° (Epoch: 13 April)

Date Brightness Start Highest point End Pass type
(mag) Time Alt. Az. Time Alt. Az. Time Alt. Az.
13 Apr 4.4 03:42:14 10° NNE 03:46:51 34° E 03:51:26 10° SSE visible
13 Apr 3.6 05:21:11 10° N 05:25:53 39° WNW 05:30:34 10° SW visible
14 Apr 5.4 03:05:51 10° NE 03:09:08 17° E 03:12:25 10° SE visible
14 Apr 3.0 04:43:37 10° NNE 04:48:42 77° WNW 04:53:46 10° SSW visible
15 Apr 3.6 04:06:21 10° NNE 04:11:20 54° E 04:16:17 10° S visible
16 Apr 4.8 03:29:28 10° NE 03:33:46 27° E 03:38:02 10° SSE visible
16 Apr 3.3 05:08:05 10° N 05:12:58 49° WNW 05:17:50 10° SW visible
17 Apr 5.6 02:53:33 10° ENE 02:55:58 13° E 02:58:23 10° ESE visible
17 Apr 3.0 04:30:37 10° NNE 04:35:44 85° ESE 04:40:49 10° SSW visible
18 Apr 4.1 03:53:27 10° NNE 03:58:18 42° E 04:03:05 10° S visible
19 Apr 5.1 03:16:47 10° NE 03:20:39 21° E 03:24:28 10° SE visible
19 Apr 3.1 04:55:01 10° N 05:00:02 62° WNW 05:05:02 10° SSW visible
20 Apr 5.9 02:42:29 10° E 02:42:46 10° E 02:43:04 10° E visible
20 Apr 3.3 04:17:39 10° NNE 04:22:44 67° ESE 04:27:46 10° S visible
21 Apr 4.5 03:40:37 10° NNE 03:45:13 33° E 03:49:47 10° SSE visible
22 Apr 5.4 03:04:15 10° NE 03:07:30 17° E 03:10:43 10° SE visible
22 Apr 3.0 04:41:59 10° NNE 04:47:04 78° WNW 04:52:08 10° SSW visible
